• In Uzbekistan
  • List of Countries
  • For 7 days
  • Water Temperature
  • Satellite Maps
  • Weather Map
  • Weather Widgets
  • user-avatar
    Login

    Hourly Weather Bad Peterstal-Griesbach

    Today, 20 February, Tuesday

    Time Temperature Precipitation Wind Pressure Humidity
    00:00 -4°C° 0 mm 0 mps 716 mmHg 87%
    01:00 -4°C° 0 mm 0 mps 715 mmHg 88%
    02:00 -4°C° 0 mm 0 mps 715 mmHg 88%
    03:00 -4°C° 0 mm 0 mps 715 mmHg 88%
    04:00 -5°C° 0 mm 0 mps 715 mmHg 88%
    05:00 -5°C° 0 mm 0 mps 715 mmHg 88%
    06:00 -4°C° 0 mm 1 mps 715 mmHg 88%
    07:00 -4°C° 0 mm 1 mps 715 mmHg 89%
    08:00 -3°C° 0 mm 1 mps 715 mmHg 84%
    09:00 -2°C° 0 mm 1 mps 715 mmHg 80%
    10:00 -1°C° 0 mm 1 mps 715 mmHg 75%
    11:00 -2°C° 0 mm 2 mps 715 mmHg 72%
    12:00 -1°C° 0 mm 2 mps 715 mmHg 68%
    13:00 +1°C° 0 mm 2 mps 715 mmHg 65%
    14:00 +1°C° 0 mm 2 mps 715 mmHg 65%
    15:00 +1°C° 0 mm 2 mps 715 mmHg 65%
    16:00 0°C° 0 mm 3 mps 715 mmHg 65%
    17:00 -1°C° 0 mm 2 mps 715 mmHg 70%
    18:00 -2°C° 0 mm 2 mps 715 mmHg 75%
    19:00 -4°C° 0 mm 2 mps 716 mmHg 80%
    20:00 -4°C° 0 mm 2 mps 716 mmHg 81%
    21:00 -2°C° 0 mm 1 mps 716 mmHg 82%
    22:00 -3°C° 0 mm 1 mps 716 mmHg 84%
    23:00 -3°C° 0 mm 1 mps 717 mmHg 85%

    Tomorrow, 21 February, Wednesday

    Time Temperature Precipitation Wind Pressure Humidity
    00:00 -5°C° 0 mm 2 mps 717 mmHg 86%
    01:00 -5°C° 0 mm 2 mps 717 mmHg 87%
    02:00 -5°C° 0 mm 2 mps 717 mmHg 88%
    03:00 -5°C° 0 mm 2 mps 717 mmHg 89%
    04:00 -5°C° 0 mm 2 mps 717 mmHg 90%
    05:00 -5°C° 0 mm 2 mps 717 mmHg 90%
    06:00 -5°C° 0 mm 2 mps 718 mmHg 90%
    07:00 -5°C° 0 mm 2 mps 718 mmHg 90%
    08:00 -5°C° 0 mm 3 mps 718 mmHg 86%
    09:00 -4°C° 0 mm 3 mps 718 mmHg 81%
    10:00 -2°C° 0 mm 3 mps 718 mmHg 76%
    11:00 -2°C° 0 mm 4 mps 718 mmHg 72%
    12:00 -1°C° 0 mm 4 mps 718 mmHg 68%
    13:00 0°C° 0 mm 4 mps 718 mmHg 63%
    14:00 0°C° 0 mm 4 mps 717 mmHg 63%
    15:00 0°C° 0 mm 4 mps 717 mmHg 62%
    16:00 0°C° 0 mm 4 mps 717 mmHg 61%
    17:00 -2°C° 0 mm 4 mps 717 mmHg 65%
    18:00 -2°C° 0 mm 3 mps 717 mmHg 70%
    19:00 -5°C° 0 mm 3 mps 717 mmHg 74%
    20:00 -5°C° 0 mm 3 mps 717 mmHg 75%
    21:00 -5°C° 0 mm 3 mps 717 mmHg 77%
    22:00 -6°C° 0 mm 3 mps 717 mmHg 78%
    23:00 -6°C° 0 mm 3 mps 717 mmHg 79%

    Day after tomorrow, 22 February, Thursday

    Time Temperature Precipitation Wind Pressure Humidity
    00:00 -6°C° 0 mm 3 mps 716 mmHg 80%
    01:00 -6°C° 0 mm 3 mps 716 mmHg 80%
    02:00 -6°C° 0 mm 3 mps 716 mmHg 80%
    03:00 -7°C° 0 mm 3 mps 715 mmHg 80%
    04:00 -7°C° 0 mm 3 mps 715 mmHg 80%
    05:00 -8°C° 0 mm 4 mps 715 mmHg 79%
    06:00 -8°C° 0 mm 4 mps 715 mmHg 79%
    07:00 -8°C° 0 mm 4 mps 715 mmHg 78%
    08:00 -7°C° 0 mm 4 mps 715 mmHg 74%
    09:00 -6°C° 0 mm 5 mps 715 mmHg 70%
    10:00 -5°C° 0 mm 6 mps 715 mmHg 65%
    11:00 -4°C° 0 mm 6 mps 715 mmHg 63%
    12:00 -3°C° 0 mm 6 mps 715 mmHg 61%
    13:00 -2°C° 0 mm 6 mps 715 mmHg 59%
    14:00 -2°C° 0 mm 6 mps 715 mmHg 60%
    15:00 -2°C° 0 mm 6 mps 714 mmHg 60%
    16:00 -2°C° 0 mm 6 mps 714 mmHg 61%
    17:00 -2°C° 0 mm 5 mps 714 mmHg 63%
    18:00 -4°C° 0 mm 5 mps 714 mmHg 66%
    19:00 -4°C° 0 mm 4 mps 715 mmHg 69%
    20:00 -4°C° 0 mm 4 mps 715 mmHg 70%
    21:00 -5°C° 0 mm 5 mps 715 mmHg 71%
    22:00 -6°C° 0 mm 5 mps 715 mmHg 72%
    23:00 -5°C° 0 mm 4 mps 715 mmHg 73%

    23 February, Friday

    Time Temperature Precipitation Wind Pressure Humidity
    00:00 -5°C° 0 mm 4 mps 715 mmHg 74%
    01:00 -5°C° 0 mm 4 mps 715 mmHg 74%
    02:00 -7°C° 0 mm 4 mps 714 mmHg 74%
    03:00 -7°C° 0 mm 4 mps 714 mmHg 74%
    04:00 -7°C° 0 mm 4 mps 714 mmHg 74%
    05:00 -7°C° 0 mm 4 mps 715 mmHg 74%
    06:00 -7°C° 0 mm 4 mps 715 mmHg 73%
    07:00 -7°C° 0 mm 4 mps 715 mmHg 73%
    08:00 -7°C° 0 mm 4 mps 715 mmHg 70%
    09:00 -6°C° 0 mm 5 mps 716 mmHg 68%
    10:00 -5°C° 0 mm 5 mps 716 mmHg 65%
    11:00 -4°C° 0 mm 5 mps 716 mmHg 63%
    12:00 -2°C° 0 mm 5 mps 716 mmHg 62%
    13:00 -1°C° 0 mm 5 mps 716 mmHg 60%
    14:00 -1°C° 0 mm 5 mps 716 mmHg 60%
    15:00 -1°C° 0 mm 5 mps 716 mmHg 60%
    16:00 -2°C° 0 mm 6 mps 716 mmHg 60%
    17:00 -2°C° 0 mm 5 mps 716 mmHg 62%
    18:00 -4°C° 0 mm 5 mps 716 mmHg 64%
    19:00 -4°C° 0 mm 4 mps 717 mmHg 66%
    20:00 -4°C° 0 mm 4 mps 717 mmHg 67%
    21:00 -5°C° 0 mm 4 mps 717 mmHg 68%
    22:00 -6°C° 0 mm 5 mps 717 mmHg 69%
    23:00 -6°C° 0 mm 5 mps 717 mmHg 69%

    24 February, Saturday

    Time Temperature Precipitation Wind Pressure Humidity
    00:00 -6°C° 0 mm 5 mps 717 mmHg 70%
    01:00 -7°C° 0 mm 5 mps 717 mmHg 70%
    02:00 -7°C° 0 mm 4 mps 717 mmHg 70%
    03:00 -7°C° 0 mm 4 mps 717 mmHg 70%
    04:00 -7°C° 0 mm 4 mps 717 mmHg 70%
    05:00 -7°C° 0 mm 4 mps 717 mmHg 70%
    06:00 -8°C° 0 mm 4 mps 717 mmHg 69%
    07:00 -8°C° 0 mm 4 mps 717 mmHg 68%
    08:00 -7°C° 0 mm 5 mps 717 mmHg 63%
    09:00 -6°C° 0 mm 5 mps 717 mmHg 58%
    10:00 -5°C° 0 mm 6 mps 717 mmHg 52%
    11:00 -4°C° 0 mm 6 mps 717 mmHg 48%
    12:00 -3°C° 0 mm 6 mps 717 mmHg 45%
    13:00 -2°C° 0 mm 7 mps 717 mmHg 41%
    14:00 -2°C° 0 mm 7 mps 717 mmHg 41%
    15:00 -2°C° 0 mm 7 mps 717 mmHg 42%
    16:00 -2°C° 0 mm 7 mps 717 mmHg 42%
    17:00 -4°C° 0 mm 6 mps 717 mmHg 46%
    18:00 -5°C° 0 mm 6 mps 717 mmHg 50%
    19:00 -6°C° 0 mm 6 mps 717 mmHg 54%
    20:00 -8°C° 0 mm 6 mps 717 mmHg 56%
    21:00 -8°C° 0 mm 6 mps 717 mmHg 57%
    22:00 -9°C° 0 mm 6 mps 717 mmHg 59%
    23:00 -9°C° 0 mm 6 mps 717 mmHg 59%

    25 February, Sunday

    Time Temperature Precipitation Wind Pressure Humidity
    00:00 -9°C° 0 mm 6 mps 717 mmHg 59%
    01:00 -10°C° 0 mm 6 mps 717 mmHg 58%
    02:00 -10°C° 0 mm 6 mps 717 mmHg 58%
    03:00 -11°C° 0 mm 6 mps 717 mmHg 58%
    04:00 -11°C° 0 mm 6 mps 716 mmHg 58%
    05:00 -11°C° 0 mm 6 mps 717 mmHg 57%
    06:00 -12°C° 0 mm 6 mps 717 mmHg 55%
    07:00 -12°C° 0 mm 6 mps 717 mmHg 53%
    08:00 -12°C° 0 mm 6 mps 717 mmHg 51%
    09:00 -12°C° 0 mm 7 mps 717 mmHg 48%
    10:00 -12°C° 0 mm 7 mps 717 mmHg 46%
    11:00 -11°C° 0 mm 7 mps 717 mmHg 43%
    12:00 -9°C° 0 mm 7 mps 717 mmHg 41%
    13:00 -9°C° 0 mm 7 mps 717 mmHg 38%
    14:00 -9°C° 0 mm 7 mps 717 mmHg 38%
    15:00 -9°C° 0 mm 7 mps 717 mmHg 39%
    16:00 -9°C° 0 mm 7 mps 716 mmHg 39%
    17:00 -9°C° 0 mm 6 mps 717 mmHg 42%
    18:00 -10°C° 0 mm 5 mps 717 mmHg 46%
    19:00 -11°C° 0 mm 5 mps 717 mmHg 49%
    20:00 -11°C° 0 mm 5 mps 717 mmHg 51%
    21:00 -12°C° 0 mm 5 mps 717 mmHg 52%
    22:00 -12°C° 0 mm 5 mps 717 mmHg 54%
    23:00 -12°C° 0 mm 5 mps 717 mmHg 55%
    Show more